This is the latest recevied weather packets stored in our database for station/object IZ1UQG-N2. If no packets are shown the sender has not sent any weather packets the latest 1 day(s).
| Time | Temp. | Humidity | Pressure | Rain* | Wind** | Luminosity | Snow |
|---|---|---|---|---|---|---|---|
| 1777965971 | 11.67° C | 91% | 1012.8 hPa | 4.57 mm | 1.34 m/s, 356° | 40 W/m² | - |
| 1777965911 | 11.67° C | 91% | 1012.8 hPa | 4.57 mm | 1.34 m/s, 357° | 37 W/m² | - |
| 1777965850 | 11.67° C | 91% | 1012.8 hPa | 4.57 mm | 1.34 m/s, 356° | 35 W/m² | - |
| 1777965848 | 11.67° C | 91% | 1012.8 hPa | 4.57 mm | 1.34 m/s, 356° | 35 W/m² | - |
| 1777965792 | 11.67° C | 91% | 1012.9 hPa | 4.57 mm | 1.34 m/s, 353° | 30 W/m² | - |
| 1777965731 | 11.67° C | 91% | 1012.9 hPa | 4.57 mm | 1.34 m/s, 353° | 28 W/m² | - |
| 1777965671 | 11.67° C | 91% | 1012.8 hPa | 4.57 mm | 1.34 m/s, 352° | 26 W/m² | - |
| 1777965667 | 11.67° C | 91% | 1012.8 hPa | 4.57 mm | 1.34 m/s, 352° | 26 W/m² | - |
| 1777965611 | 11.67° C | 90% | 1012.8 hPa | 4.32 mm | 1.34 m/s, 353° | 25 W/m² | - |
| 1777965552 | 11.67° C | 91% | 1012.8 hPa | 4.57 mm | 1.34 m/s, 353° | 25 W/m² | - |
| 1777965491 | 11.67° C | 90% | 1012.9 hPa | 4.57 mm | 1.34 m/s, 351° | 25 W/m² | - |
| 1777965489 | 11.67° C | 90% | 1012.9 hPa | 4.57 mm | 1.34 m/s, 351° | 25 W/m² | - |
| 1777965431 | 11.67° C | 90% | 1012.8 hPa | 4.57 mm | 1.34 m/s, 350° | 23 W/m² | - |
| 1777965372 | 11.67° C | 91% | 1012.8 hPa | 4.57 mm | 1.34 m/s, 349° | 21 W/m² | - |
| 1777965312 | 11.67° C | 91% | 1012.7 hPa | 4.57 mm | 1.34 m/s, 349° | 19 W/m² | - |
| 1777965307 | 11.67° C | 91% | 1012.7 hPa | 4.57 mm | 1.34 m/s, 349° | 19 W/m² | - |
| 1777965251 | 11.67° C | 91% | 1012.8 hPa | 4.57 mm | 1.34 m/s, 351° | 18 W/m² | - |
| 1777965190 | 11.67° C | 90% | 1012.7 hPa | 4.57 mm | 1.34 m/s, 355° | 18 W/m² | - |
| 1777965130 | 11.67° C | 90% | 1012.6 hPa | 4.57 mm | 1.34 m/s, 357° | 21 W/m² | - |
| 1777965128 | 11.67° C | 90% | 1012.6 hPa | 4.57 mm | 1.34 m/s, 357° | 21 W/m² | - |
| 1777965072 | 11.67° C | 90% | 1012.6 hPa | 4.57 mm | 1.34 m/s, 357° | 21 W/m² | - |
| 1777965012 | 11.67° C | 90% | 1012.6 hPa | 4.57 mm | 0.89 m/s, 1° | 23 W/m² | - |
| 1777964958 | 11.67° C | 91% | 1012.6 hPa | 4.57 mm | 0.89 m/s, 2° | 23 W/m² | - |
| 1777964958 | 11.67° C | 91% | 1012.6 hPa | 4.57 mm | 0.89 m/s, 2° | 23 W/m² | - |
| 1777964890 | 11.67° C | 91% | 1012.6 hPa | 4.32 mm | 0.89 m/s, 12° | 25 W/m² | - |
* Rain latest hour (hover to see other rain measurements)
** Current wind speed in m/s (hover to see current wind gust speed)